Tracking 29892 objects as of 21-Nov-2024
HD Live streaming from Space Station
objects crossing your sky now

ARIANE 5 R/B

Track ARIANE 5 R/B now!


NORAD ID: 44802
Int'l Code: 2019-080C
Perigee: 237.0 km
Apogee: 31,905.9 km
Inclination: 5.4 °
Period: 557.7 minutes
Semi major axis: 22442 km
RCS: Unknown
Launch date: November 26, 2019
Source: France (FR)
Launch site: FRENCH GUIANA (FRGUI)

Note: This is a ROCKET BODY
Your satellite tracking list
Your tracking list is empty




NASA's NSSDC Master Catalog

Two Line Element Set (TLE):
1 44802U 19080C   24325.66211038  .00007792  00000-0  11836-2 0  9995
2 44802   5.3688 104.4091 7055583  12.3009 358.3547  2.58224604 44205
Source of the keplerian elements: AFSPC